www.pogodaiklimat.ru

АРХИВ ПОГОДЫ в Мидленде

Время (UTC), дата Ветер
(напр.,м/с)
 
Видим.   Явления Облачность Т
(С)
Тd
(С)
f
(%)
Тe
(С)
Тes
(С)
Комфортность

P
(гПа)

Po
(гПа)
Тmin
(С)
Tmax
(С)
R
(мм)
SD
(см)
12:37 13.08 штиль  11 км    10/10 210 м  +21.7  +20.6  93  +27  +27  душно    916.8         
12:53 13.08 штиль  11 км    8/8 210 м  +21.7  +20.0  90  +27  +27  душно  1014.0  916.8         
13:53 13.08 З  16 км    5/5 270 м  +22.8  +20.0  84  +29  +31  очень
душно 
1013.7  916.5         
14:05 13.08 ЮЗ  14 км    8/8 390 м  +22.8  +20.0  84  +29  +31  очень
душно 
  916.5         
14:53 13.08 ЮЗ  16 км    10/10 450 м  +24.0  +20.0  78  +29  +29  душно  1014.0  916.8         
15:19 13.08 нст  16 км    10/10 510 м  +24.4  +20.0  76  +30  +30  очень
душно 
  916.5         
15:28 13.08 ЮЗ  16 км    8/8 510 м  +25.0  +20.6  77  +31  +33  очень
душно 
  916.5         
15:53 13.08 штиль  16 км    ясно  +25.0  +19.4  71  +30  +47  душно  1013.5  916.2         
16:53 13.08 С  16 км    ясно  +27.2  +18.9  60  +32  +47  очень
душно 
1012.6  915.6    +27.8     
17:53 13.08 нст  16 км    2/2 1050 м  +28.3  +18.9  57  +34  +48  очень
душно 
1011.8  915.0         
18:53 13.08 штиль  16 км    ясно  +29.4  +17.8  50  +34  +61  опасность
солнечного
удара 
1010.8  914.4         
19:53 13.08 ЮВ  16 км    ясно  +30.6  +17.2  45  +35  +51  опасность
солнечного
удара 
1009.8  913.5         
20:53 13.08 З  16 км    ясно  +31.1  +16.1  40  +34  +50  душно  1009.3  913.2         
21:53 13.08 нст  16 км    ясно  +31.1  +16.1  40  +34  +45  душно  1009.0  912.9         
22:20 13.08 В  8
{12} 
16 км  гроза  ясно  +30.6  +20.0  53  +37  +37  очень
душно 
  912.9         
22:53 13.08 ЮВ  16 км  гроза  ясно  +27.2  +19.4  62  +33  +33  очень
душно 
1009.6  913.2  +26.7  +32.2     
23:17 13.08 Ю  11
{13} 
16 км    ясно  +26.7  +18.9  62  +32  +32  очень
душно 
  913.2         
23:53 13.08 Ю  14 км    ясно  +27.0  +20.0  66  +33  +33  очень
душно 
1009.5  912.9         
00:53 14.08 Ю  7
{10} 
14 км    ясно  +26.7  +20.6  69  +33  +33  очень
душно 
1010.0  913.5         
01:53 14.08 Ю  14 км    ясно  +25.6  +20.6  74  +32  +32  очень
душно 
1010.6  913.8         
02:53 14.08 Ю  13 км    ясно  +24.4  +20.6  79  +30  +30  очень
душно 
1011.1  914.4         
03:53 14.08 Ю  13 км    ясно  +23.9  +20.0  79  +29  +29  душно  1011.6  915.0         
04:53 14.08 Ю  10 км  мгла  ясно  +23.3  +20.6  85  +31  +31  очень
душно 
1011.3  914.7         
05:53 14.08 Ю  11 км    ясно  +22.8  +20.6  87  +30  +30  очень
душно 
1010.9  914.4         
06:53 14.08 Ю  10 км  дымка  ясно  +22.2  +20.6  91  +29  +29  очень
душно 
1010.0  913.8         
07:53 14.08 Ю  10 км  дымка  ясно  +22.2  +20.6  91  +29  +29  очень
душно 
1009.8  913.5         
08:53 14.08 Ю  10 км  дымка  ясно  +21.7  +20.6  93  +27  +27  душно  1009.6  913.5         
09:53 14.08 ЮВ  10 км  дымка  ясно  +21.1  +19.4  90  +26  +26  душно  1009.9  913.8         
10:53 14.08 ЮВ  6 км  дымка  ясно  +21.1  +20.0  93  +26  +26  душно  1010.4  913.8    +23.3     
11:23 14.08 ЮВ  4 км  дымка  ясно  +20.6  +20.0  96  +25  +25  комфорт    913.8         
11:33 14.08 ЮВ  6 км  дымка  ясно  +20.6  +20.0  96  +25  +25  комфорт    913.8         
11:53 14.08 Ю  5 км  дымка  ясно  +20.6  +20.0  96  +25  +25  комфорт  1010.5  913.8         
12:38 14.08 Ю  10 км  дымка  2/2 180 м  +21.7  +20.0  90  +27  +27  душно    913.8         
12:53 14.08 Ю  11 км    2/2 180 м  +21.7  +20.0  90  +27  +27  душно  1010.6  914.1         
13:53 14.08 Ю  16 км    ясно  +25.0  +20.0  74  +31  +32  очень
душно 
1010.2  913.8         
14:53 14.08 Ю  16 км    ясно  +26.1  +20.0  69  +32  +33  очень
душно 
1010.7  914.4         
15:53 14.08 Ю  16 км    ясно  +28.3  +20.0  61  +35  +41  очень
душно 
1010.7  914.4         
16:53 14.08 Ю  16 км    ясно  +30.0  +19.4  53  +36  +44  очень
душно 
1010.5  914.1    +30.0     
17:53 14.08 Ю  5
{9} 
16 км    ясно  +31.7  +18.9  47  +37  +44  очень
душно 
1010.0  913.8         
18:53 14.08 Ю  4
{8} 
16 км    ясно  +32.8  +18.3  42  +37  +47  очень
душно 
1009.3  913.2         
19:53 14.08 Ю  16 км    ясно  +33.3  +17.2  38  +37  +44  очень
душно 
1008.7  912.9         
20:53 14.08 ЮВ  16 км    ясно  +33.9  +17.2  37  +37  +41  очень
душно 
1008.0  912.3         
21:53 14.08 ЮВ  16 км    ясно  +33.9  +15.0  32  +36  +42  душно  1007.8  912.0         
22:53 14.08 ЮВ  16 км    ясно  +33.9  +15.6  33  +36  +37  душно  1007.5  911.6         
23:53 14.08 ЮВ  16 км    ясно  +31.7  +17.2  42  +35  +36  очень
душно 
1007.9  912.0         
00:53 15.08 ЮВ  14 км    ясно  +29.4  +18.9  53  +35  +35  очень
душно 
1009.0  912.9         
01:53 15.08 Ю  16 км    ясно  +28.3  +18.9  57  +34  +34  очень
душно 
1009.5  913.5         
02:53 15.08 Ю  16 км    ясно  +27.2  +19.4  62  +33  +33  очень
душно 
1010.4  914.1         

 

Местоположение метеостанции Midland International Airport: широта 31.9478 долгота -102.2086 высота над уровнем моря 875 м.

В архиве по умолчанию представлена погода в Мидленде за последние 1-2 суток. Обновление информации о фактической погоде в базе происходит ежечасно! Архивные данные за месяц целиком и за предыдущие месяцы Вы можете получить, выбрав интересующий диапазон дат из раскрывающегося списка и нажав кнопку "Ввод!".

Внимание! Архив погоды МЕТАР в базе сайта в настоящее время начинается c 1 января 2013 г. Нет смысла пытаться выбрать более раннюю дату.

Внимание! Время в таблицах - всемирное. Для получения местного времени необходимо прибавить поправку, которая в Мидленде равна -6 ч.

Ветер - указаны скорость ветра в м/с и направление, откуда дует ветер: С - северный, СВ - северо-восточный, В - восточный, ЮВ - юго-восточный, Ю - южный, ЮЗ - юго-западный, З - западный, СЗ - северо-западный.
Видимость - горизонтальная дальность видимости в метрах или километрах. При видимости от 1 до 10 км при отсутствии осадков обычно наблюдается дымка, при ухудшении видимости до 1 км и менее - туман. В сухую погоду видимость может ухудшаться дымом, пылью или мглою.
Атмосферные явления - указаны явления, наблюдавшиеся в указанный момент времени.
Облачность - указаны через наклонную черту верхняя и нижняя облачность в баллах и высота нижней границы облаков в метрах. Внимание: облачность, как и прочие метеорологические величины в США измеряются автоматическими метеостанциями. Указанные значения в баллах носят условный характер и показывают процент времени, в течение которого, в среднем, лазерный луч высотомера отражался от облаков обратно.
T - Температура воздуха - температура, измеренная на высоте 2 м над землей.
Td - Температура точки росы - температура, при понижении до которой содержащийся в воздухе водяной пар достигнет насыщения.
f - Относительная влажность воздуха - влажноcть воздуха, измеренная на высоте 2 м над землей.
Te - Эффективная температура - температура, которую ощущает одетый по сезону человек в тени. Характеристика душности погоды. При расчете учитывается влияние влажности воздуха и скорости ветра на теплоощущения человека.
Tes - Эффективная температура на солнце - температура, которую ощущает человек, с поправкой на солнечный нагрев. Характеристика знойности погоды. Зависит от высоты солнца над горизонтом, облачности и скорости ветра. Ночью, в пасмурную погоду, а также при ветре 12 м/с и более поправка равна нулю.
P - Атмосферное давление - приведенное к уровню моря атмосферное давление.
Po - Атмосферное давление - измеренное на уровне метеостанции атмосферное давление.
Tmin - Минимальная температура - минимум температуры воздуха на высоте 2 м над землей.
Tmax - Максимальная температура - максимум температуры воздуха на высоте 2 м над землей.
R - Количество осадков - Количество выпавших осадков за 3 или 6 часов, мм.
SD - Снежный покров - Высота снежного покрова, см.